Location: Newark
(29.9790°N, 31.1340°E)
Time: 14:40:26
(UTC+00:00)

A-11 Canister half - Pass Details

Date: 26 January 2020
Orbit: 1524 x 1684 km, 47.3° (Epoch: 28 February)

Event Time Altitude Azimuth Distance (km) Brightness Sun altitude
Rises 18:02:03 0° 294° (WNW) 4,698 12.4 -33.5°
Reaches altitude 10° 18:05:47 10° 306° (NW) 3,733 11.5 -34.3°
Maximum altitude 18:13:30 27° 1° (N) 2,673 10.1 -36.0°
Enters shadow 18:14:00 27° 6° (N) 2,681 10.1 -36.1°
